Location: Yecla
(38.6122°N, 1.1101°W)
Time: 22:11:50
(UTC+02:00)

ISS - Pass Details

Date: 27 March 2019
Orbit: 408 x 410 km, 51.6° (Epoch: 24 April)

Event Time Altitude Azimuth Distance (km) Brightness Sun altitude
Rises 20:05:55 0° 278° (W) 2,331 2.4 -9.2°
Reaches altitude 10° 20:08:41 10° 303° (WNW) 1,471 0.3 -9.7°
Maximum altitude 20:10:40 15° 340° (NNW) 1,216 -1.0 -10.1°
Drops below altitude 10° 20:12:38 10° 17° (NNE) 1,473 -1.0 -10.5°
Enters shadow 20:15:16 - 41° (NE) 2,284 -0.3 -11.0°
